sat.trackr.live / text

‹ back to catalog

YAOGAN-31 01C

NORAD 43277 · 2018-034C

PAYLOAD ACTIVE UNKNOWN

§ Identity

Operator
Country
PRC
Launch date
2018-04-10
Launch site
JSC
Launch vehicle
Mass (kg)
RCS (m²)

External: N2YO · Heavens-Above · Gunter

§ Orbital elements

Epoch: 2026-05-25T04:11:44.056608Z

Period
107.03 min
Inclination
63.3938°
Eccentricity
0.0273535
Mean motion
13.45440146 rev/d
Perigee alt
884.8 km
Apogee alt
1,293.3 km
Semi-major
7,467.2 km
B*
-8.4904e-5
RAAN
149.8599°
Arg perigee
7.0300°
Mean anomaly
353.4441°
Rev number
39,914

§ Raw data

YAOGAN-31 01C1 43277U 18034C   26145.17481547 -.00000154  00000+0 -84904-4 0  99942 43277  63.3938 149.8599 0273535   7.0300 353.4441 13.45440146399149

JSON: /api/v1/satellites/43277 · /tle

For live sub-satellite position, see the globe view (requires WebGL).

§ Visibility from observer

Set your observer location to see the next 7 days of passes ≥ 10°. The values pass through the URL so the page stays shareable.

No JS? Fill the form by hand. The geolocation button needs JavaScript.